Warsaw, Poland

7:39 AM CET on November 18, 2017 (GMT +0100)
Okecie

Weather History for EPWA - September, 2013

Change the Weather History Date:

Saturday, September 7, 2013

  Actual Average Record
Temperature  
Mean Temperature 58 °F -  
Max Temperature 71 °F 63 °F 86 °F (2008)
Min Temperature 46 °F 46 °F 42 °F (2003)
Degree Days  
Heating Degree Days 6    
Growing Degree Days 8 (Base 50)    
Moisture  
Dew Point 43 °F    
Average Humidity 56    
Maximum Humidity 100    
Minimum Humidity 21    
Precipitation  
Precipitation 0.00 in 0.05 in - ()
Sea Level Pressure  
Sea Level Pressure 30.18 in    
Wind  
Wind Speed 3 mph ()    
Max Wind Speed 12 mph    
Max Gust Speed -    
Visibility 11.6 miles    
Events Fog    
Averages and records for this station are not official NWS values.
T = Trace of Precipitation, MM = Missing Value Source: Averaged Metar Reports

Daily Weather History Graph

Daily Weather History Graph

Search for Another Location

Airport or City:

Trip Planner

Search our weather history database for the weather conditions in past years. The results will help you decide how hot, cold, wet, or windy it might be!

Date:

Astronomy

Sep. 07, 2013 Rise Set
Actual Time 5:57 AM CEST 7:09 PM CEST
Civil Twilight 5:22 AM CEST 7:44 PM CEST
Nautical Twilight 4:40 AM CEST 8:26 PM CEST
Astronomical Twilight 3:54 AM CEST 9:12 PM CEST
Moon 8:14 AM CEST (9/7) 7:32 PM CEST (9/7)
Length of Visible Light 14h 21m
Length of Day
13h 12m
Waxing Crescent, 4% of the Moon is Illuminated
Sep 7
Waxing Crescent
Sep 12
First Quarter
Sep 19
Full
Sep 27
Last Quarter
Oct 5
New

Hourly Weather History & Observations

Time (CEST) Temp. Dew Point Humidity Pressure Visibility Wind Dir Wind Speed Gust Speed Precip Events Conditions
12:00 AM 55.4 °F 48.2 °F 77% 30.12 in - NE 3.5 mph - N/A   Clear
12:30 AM 55.4 °F 48.2 °F 77% 30.12 in - Variable 2.3 mph - N/A   Clear
1:00 AM 55.4 °F 48.2 °F 77% 30.12 in - Variable 2.3 mph - N/A   Clear
1:30 AM 55.4 °F 48.2 °F 77% 30.12 in - Variable 2.3 mph - N/A   Clear
2:00 AM 53.6 °F 48.2 °F 82% 30.12 in - Variable 2.3 mph - N/A   Clear
2:30 AM 53.6 °F 48.2 °F 82% 30.12 in - Variable 2.3 mph - N/A   Clear
3:00 AM 51.8 °F 48.2 °F 88% 30.12 in - Calm Calm - N/A   Clear
3:30 AM 50.0 °F 46.4 °F 87% 30.12 in 6.2 mi Calm Calm - N/A Fog Shallow Fog
4:00 AM 48.2 °F 46.4 °F 93% 30.15 in 6.2 mi Calm Calm - N/A Fog Shallow Fog
4:30 AM 48.2 °F 46.4 °F 93% 30.15 in 6.2 mi Variable 1.2 mph - N/A Fog Shallow Fog
5:00 AM 48.2 °F 46.4 °F 93% 30.15 in 6.2 mi Calm Calm - N/A Fog Shallow Fog
5:30 AM 46.4 °F 44.6 °F 93% 30.15 in 6.2 mi Calm Calm - N/A Fog Shallow Fog
6:00 AM 46.4 °F 44.6 °F 93% 30.15 in 6.2 mi Calm Calm - N/A Fog Shallow Fog
6:30 AM 48.2 °F 46.4 °F 93% 30.15 in 6.2 mi Calm Calm - N/A Fog Shallow Fog
7:00 AM 48.2 °F 48.2 °F 100% 30.18 in - Variable 1.2 mph - N/A   Clear
7:30 AM 53.6 °F 51.8 °F 94% 30.18 in - Calm Calm - N/A   Clear
8:00 AM 56 °F 51 °F 76% 30.19 in 12 mi Calm Calm - -  
8:00 AM 57.2 °F 50.0 °F 77% 30.18 in - Variable 1.2 mph - N/A   Clear
8:30 AM 59.0 °F 50.0 °F 72% 30.18 in - Variable 2.3 mph - N/A   Clear
9:00 AM 60.8 °F 48.2 °F 63% 30.18 in - Variable 2.3 mph - N/A   Clear
9:30 AM 62.6 °F 46.4 °F 55% 30.18 in - Variable 2.3 mph - N/A   Clear
10:00 AM 62.6 °F 44.6 °F 52% 30.18 in - NNE 4.6 mph - N/A   Clear
10:30 AM 64.4 °F 41.0 °F 42% 30.18 in - NNE 4.6 mph - N/A   Clear
11:00 AM 65 °F 43 °F 33% 30.21 in 19 mi NNE 11.2 mph - -  
11:00 AM 64.4 °F 41.0 °F 42% 30.21 in - NNE 9.2 mph - N/A   Clear
11:30 AM 66.2 °F 44.6 °F 46% 30.21 in - NE 11.5 mph - N/A   Clear
12:00 PM 66.2 °F 42.8 °F 43% 30.21 in - North 9.2 mph - N/A   Clear
12:30 PM 68.0 °F 44.6 °F 43% 30.18 in - NE 5.8 mph - N/A   Clear
1:00 PM 68.0 °F 42.8 °F 40% 30.18 in - NE 6.9 mph - N/A   Clear
1:30 PM 69.8 °F 39.2 °F 33% 30.18 in - ENE 5.8 mph - N/A   Clear
2:00 PM 70 °F 41 °F 24% 30.20 in 19 mi NNE 4.5 mph - -  
2:00 PM 69.8 °F 39.2 °F 33% 30.18 in - NNE 6.9 mph - N/A   Clear
2:30 PM 69.8 °F 35.6 °F 28% 30.18 in - NNE 5.8 mph - N/A   Clear
3:00 PM 71.6 °F 37.4 °F 29% 30.18 in - NNE 6.9 mph - N/A   Clear
3:30 PM 71.6 °F 39.2 °F 31% 30.18 in - NE 5.8 mph - N/A   Clear
4:00 PM 71.6 °F 37.4 °F 29% 30.18 in - NNE 5.8 mph - N/A   Clear
4:30 PM 71.6 °F 41.0 °F 33% 30.18 in - North 9.2 mph - N/A   Clear
5:00 PM 70 °F 39 °F 21% 30.19 in 19 mi NNW 8.9 mph - -  
5:00 PM 69.8 °F 37.4 °F 31% 30.18 in - NNE 9.2 mph - N/A   Clear
5:30 PM 69.8 °F 37.4 °F 31% 30.18 in - North 9.2 mph - N/A   Clear
6:00 PM 68.0 °F 37.4 °F 33% 30.18 in - North 9.2 mph - N/A   Clear
6:30 PM 66.2 °F 37.4 °F 35% 30.18 in - NNE 8.1 mph - N/A   Clear
7:00 PM 64.4 °F 37.4 °F 37% 30.21 in - Variable 2.3 mph - N/A   Clear
7:30 PM 62.6 °F 39.2 °F 42% 30.21 in - Variable 2.3 mph - N/A   Clear
8:00 PM 61 °F 40 °F 34% 30.23 in 19 mi NNE 4.5 mph - -  
8:00 PM 60.8 °F 41.0 °F 48% 30.21 in - Variable 2.3 mph - N/A   Clear
8:30 PM 60.8 °F 39.2 °F 45% 30.21 in - NE 3.5 mph - N/A   Clear
9:00 PM 60.8 °F 41.0 °F 48% 30.21 in - NNE 4.6 mph - N/A   Clear
9:30 PM 60.8 °F 41.0 °F 48% 30.24 in - NNE 4.6 mph - N/A   Clear
10:00 PM 59.0 °F 42.8 °F 55% 30.24 in - ENE 5.8 mph - N/A   Clear
10:30 PM 57.2 °F 41.0 °F 55% 30.24 in - ENE 4.6 mph - N/A   Clear
11:00 PM 57 °F 42 °F 45% 30.26 in 19 mi ENE 8.9 mph - -  
11:00 PM 57.2 °F 41.0 °F 55% 30.24 in - ENE 9.2 mph - N/A   Clear
11:30 PM 53.6 °F 41.0 °F 62% 30.24 in - ENE 6.9 mph - N/A   Clear